Location: Unspecified
(0.0000°N, 0.0000°E)
Time: 07:50:52
(UTC+00:00)

Amateur Radio Satellites - All Passes

Search period start: 17 August 2017 07:20
Search period end: 18 August 2017 07:20
Location: Unspecified, 0.0000°N, 0.0000°E

Satellite Date Start Highest point End Downlink Frequencies (MHz)
Time Altitude Azimuth
SEEDS 17 Aug 07:24:48 07:28:58 61° 282° (WNW) 07:33:09 437.485
STRAND 1 17 Aug 07:25:08 07:30:09 55° 257° (WSW) 07:35:10 437.568
CUBEBUG 2 17 Aug 07:27:07 07:31:24 74° 281° (WNW) 07:35:51 437.445
UWE-3 17 Aug 07:29:35 07:33:51 58° 102° (ESE) 07:38:15 435.000/436.395/437.385
ISS 17 Aug 07:29:38 07:30:33 11° 126° (SE) 07:31:28 437.550
FO-29 17 Aug 07:35:00 07:37:40 12° 76° (ENE) 07:40:20 435.910
Tancredo 1 17 Aug 07:35:11 07:38:05 64° 306° (NW) 07:40:58 437.200
nSIGHT-1 17 Aug 07:42:23 07:44:44 18° 126° (SE) 07:47:06 .
HO-68 17 Aug 07:54:08 08:00:13 31° 285° (WNW) 08:06:22 435.675
Oscar 11 17 Aug 07:58:37 08:02:39 38° 102° (ESE) 08:06:43 .
ZACube-1 17 Aug 08:19:42 08:23:59 58° 281° (WNW) 08:28:23 437.345
AAUSAT CUBESAT 2 17 Aug 08:24:57 08:28:11 22° 282° (WNW) 08:31:26 437.432
DELFI C3 17 Aug 08:37:10 08:40:03 20° 102° (ESE) 08:42:56 145.870
RS-15 17 Aug 08:40:40 08:50:14 29° 111° (ESE) 09:00:02 29.354- 29.394
AO-73 17 Aug 08:44:09 08:47:58 30° 281° (W) 08:51:53 145.935
EO-88 17 Aug 08:51:32 08:53:45 15° 102° (ESE) 08:56:00 145.990 - 145.960
PRISM 17 Aug 08:59:50 09:02:15 15° 78° (ENE) 09:04:39 437.425
JUGNU 17 Aug 09:01:41 09:07:13 39° 340° (NNW) 09:12:43 437.505
SRMSAT 17 Aug 09:02:54 09:08:34 45° 160° (SSE) 09:14:11 437.500
ISS 17 Aug 09:04:12 09:06:51 22° 306° (NW) 09:09:28 437.550
SO-50 17 Aug 09:05:48 09:08:20 15° 68° (ENE) 09:10:54 436.795
UNISAT 6 17 Aug 09:06:09 09:10:14 33° 79° (ENE) 09:14:12 437.425
FO-29 17 Aug 09:14:26 09:22:15 78° 257° (WSW) 09:30:01 435.910
O/OREOS (USA 219) 17 Aug 09:16:53 09:20:58 35° 284° (WNW) 09:25:01 437.305
PCSat 17 Aug 09:17:10 09:22:16 44° 71° (ENE) 09:27:23 145.827
nSIGHT-1 17 Aug 09:19:20 09:20:56 13° 306° (NW) 09:22:32 .
Max Valier Satellite 17 Aug 09:19:36 09:23:17 68° 102° (ESE) 09:27:00 145.860
TIGRISAT 17 Aug 09:42:04 09:46:38 84° 259° (W) 09:51:03 435.000
DELFI C3 17 Aug 10:12:39 10:14:32 13° 282° (WNW) 10:16:26 145.870
M-CUBED/EXP-1 PRIME 17 Aug 10:21:36 10:24:45 23° 73° (ENE) 10:28:05 437.505
EO-88 17 Aug 10:25:11 10:27:09 14° 281° (WNW) 10:29:08 145.990 - 145.960
PRISM 17 Aug 10:34:15 10:37:15 20° 258° (WSW) 10:40:15 437.425
LO-87 17 Aug 10:34:44 10:38:08 49° 101° (E) 10:41:34 145.935 - 145.965
POLYITAN 1 17 Aug 10:37:51 10:39:41 13° 78° (ENE) 10:41:31 437.675
NANOSAT C BR1 17 Aug 10:38:23 10:39:17 11° 78° (ENE) 10:40:10 145.865
SO-50 17 Aug 10:44:34 10:48:32 28° 248° (WSW) 10:52:33 436.795
UNISAT 6 17 Aug 10:45:30 10:46:36 11° 257° (WSW) 10:47:42 437.425
RS-15 17 Aug 10:50:58 11:02:12 52° 291° (WNW) 11:13:56 29.354- 29.394
QB50P2 17 Aug 10:51:07 10:54:30 23° 78° (ENE) 10:57:51 145.880/145.840
SRMSAT 17 Aug 10:51:53 10:57:46 66° 339° (NNW) 11:03:38 437.500
JUGNU 17 Aug 10:52:55 10:56:39 17° 346° (NNW) 11:00:23 437.505
EO-79 17 Aug 10:53:31 10:56:49 22° 78° (ENE) 11:00:06 145.935-145.965
PCSat 17 Aug 11:03:34 11:05:25 12° 250° (WSW) 11:07:15 145.827
SPROUT 17 Aug 11:05:00 11:05:53 11° 102° (ESE) 11:06:47 437.525
NO-84 17 Aug 11:06:39 11:09:52 27° 59° (ENE) 11:13:21 435.350 FM
DUCHIFAT 1 17 Aug 11:28:07 11:32:15 53° 79° (ENE) 11:36:20 145.980
ESTCUBE 1 17 Aug 11:30:25 11:34:45 46° 282° (WNW) 11:39:05 437.505/2401.250
AIST 2D 17 Aug 11:35:47 11:38:15 18° 259° (WSW) 11:40:42 435.315
BUGSAT 1 17 Aug 11:47:06 11:50:00 18° 78° (ENE) 11:52:51 437.445
VELOX 1 17 Aug 11:56:24 12:00:38 49° 102° (ESE) 12:04:52 145.980
M-CUBED/EXP-1 PRIME 17 Aug 11:57:01 11:58:58 13° 256° (WSW) 12:00:57 437.505
50 SAT 17 Aug 12:07:22 12:09:30 16° 102° (ESE) 12:11:38 437.505
NANOSAT C BR1 17 Aug 12:11:04 12:14:43 28° 258° (WSW) 12:18:21 145.865
POLYITAN 1 17 Aug 12:11:44 12:15:12 25° 258° (WSW) 12:18:40 437.675
DX 1 17 Aug 12:13:43 12:16:26 16° 103° (ESE) 12:19:07 434.975-435.025
QB50P2 17 Aug 12:27:53 12:30:00 14° 258° (WSW) 12:32:06 145.880/145.840
EO-79 17 Aug 12:30:02 12:32:18 14° 258° (WSW) 12:34:33 145.935-145.965
Oscar 19 17 Aug 12:32:06 12:36:26 28° 77° (ENE) 12:40:45 437.125/150
SPROUT 17 Aug 12:37:51 12:41:30 29° 282° (WNW) 12:45:11 437.525
SRMSAT 17 Aug 12:42:18 12:47:07 25° 342° (NNW) 12:51:56 437.500
NO-84 17 Aug 12:45:12 12:47:15 14° 235° (SW) 12:49:21 435.350 FM
Gurwin Techsat 1B 17 Aug 13:10:07 13:15:14 48° 77° (ENE) 13:20:19 435.225
BUGSAT 1 17 Aug 13:22:20 13:25:04 17° 258° (WSW) 13:27:47 437.445
UKube-1 17 Aug 13:35:29 13:39:40 53° 282° (WNW) 13:43:52 .
50 SAT 17 Aug 13:41:29 13:41:55 10° 282° (WNW) 13:42:20 437.505
DX 1 17 Aug 13:49:08 13:52:20 20° 282° (WNW) 13:55:32 434.975-435.025
BEESAT 17 Aug 14:03:38 14:07:01 19° 103° (ESE) 14:10:23 436.000
AO-7 17 Aug 14:07:15 14:13:48 26° 73° (ENE) 14:20:17 .
Oscar 19 17 Aug 14:12:11 14:15:28 17° 257° (WSW) 14:18:46 437.125/150
MOZHAYETS 4 17 Aug 14:24:17 14:28:14 28° 102° (ESE) 14:32:11
ITUPSAT 1 17 Aug 14:33:48 14:38:24 48° 103° (ESE) 14:43:00 437.325
YUBILEINY 17 Aug 14:34:27 14:42:02 32° 93° (E) 14:49:32 435.215
SRMSAT 17 Aug 14:34:32 14:36:58 13° 350° (N) 14:39:25 437.500
JUGNU 17 Aug 14:35:35 14:36:49 11° 7° (N) 14:38:04 437.505
Gurwin Techsat 1B 17 Aug 14:54:10 14:54:51 10° 257° (WSW) 14:55:32 435.225
ITAMSAT 1 17 Aug 15:20:37 15:25:50 76° 257° (WSW) 15:31:03 435.822/435.867
BEESAT 3 17 Aug 15:40:30 15:44:06 37° 68° (ENE) 15:47:39 437.485
BEESAT 17 Aug 15:40:53 15:44:30 22° 282° (WNW) 15:48:07 436.000
AO-7 17 Aug 15:58:24 16:06:10 43° 254° (WSW) 16:13:56 .
MOZHAYETS 4 17 Aug 16:02:48 16:05:06 14° 282° (WNW) 16:07:26
CUBESAT XI-V 17 Aug 16:09:14 16:13:56 84° 280° (W) 16:18:37 437.345
AO-85 17 Aug 16:13:09 16:17:58 76° 69° (ENE) 16:23:07 145.980
JUGNU 17 Aug 16:22:31 16:26:40 20° 16° (NNE) 16:30:49 437.505
YUBILEINY 17 Aug 16:30:49 16:38:25 33° 273° (W) 16:46:00 435.215
DOVE 4 17 Aug 16:35:23 16:40:07 37° 78° (ENE) 16:44:57 437.250
KKS-1 17 Aug 16:41:45 16:46:10 80° 283° (WNW) 16:50:35 437.445
CUTE-I 17 Aug 17:01:53 17:05:17 17° 77° (ENE) 17:08:41 437.470
KAITUO 1B 17 Aug 17:10:52 17:12:49 14° 79° (ENE) 17:14:48 145.475/437.950
LilacSat-2 17 Aug 17:16:31 17:19:47 28° 79° (ENE) 17:23:02 437.200
BEESAT 2 17 Aug 17:22:16 17:25:38 27° 248° (WSW) 17:28:59 435.950
XW-2D 17 Aug 17:25:41 17:29:11 38° 79° (E) 17:32:40 145.860 - 145.880
STARS 17 Aug 17:32:07 17:36:17 48° 282° (WNW) 17:40:30 437.465
XW-2B 17 Aug 17:36:25 17:40:05 56° 79° (E) 17:43:44 145.730 - 145.750
NUDT-PHONESAT 17 Aug 17:48:11 17:51:47 58° 78° (ENE) 17:55:21 437.300
XW-2C 17 Aug 17:55:13 17:58:55 65° 259° (W) 18:02:37 145.795 - 145.815
HO-68 17 Aug 17:58:59 18:04:31 24° 75° (ENE) 18:10:00 435.675
JUGNU 17 Aug 18:10:21 18:15:58 48° 21° (NNE) 18:21:37 437.505
XW-2F 17 Aug 18:11:01 18:14:28 37° 259° (WSW) 18:17:54 145.980 - 146.000
SRMSAT 17 Aug 18:14:33 18:17:34 14° 11° (NNE) 18:20:36 437.500
DOVE 4 17 Aug 18:14:59 18:17:31 14° 259° (WSW) 18:20:06 437.250
STRAND 1 17 Aug 18:19:50 18:23:42 22° 103° (ESE) 18:27:35 437.568
CUTE 1.7 + AOD 2 17 Aug 18:34:31 18:38:30 42° 79° (ENE) 18:42:27 437.475
CUTE-I 17 Aug 18:40:21 18:45:03 31° 257° (WSW) 18:49:44 437.470
KAITUO 1B 17 Aug 18:44:20 18:46:33 15° 259° (WSW) 18:48:46 145.475/437.950
AAUSAT CUBESAT 2 17 Aug 18:54:01 18:56:21 15° 78° (ENE) 18:58:41 437.432
Tancredo 1 17 Aug 19:00:11 19:02:56 42° 55° (NE) 19:05:41 437.200
nSIGHT-1 17 Aug 19:16:59 19:17:54 11° 54° (NE) 19:18:50 .
AO-73 17 Aug 19:19:17 19:21:40 15° 79° (E) 19:24:01 145.935
SEEDS 17 Aug 19:30:02 19:34:04 50° 259° (WSW) 19:38:06 437.485
CUBEBUG 2 17 Aug 19:39:46 19:44:11 48° 258° (WSW) 19:48:27 437.445
UWE-3 17 Aug 19:40:54 19:45:21 86° 78° (ENE) 19:49:39 435.000/436.395/437.385
HO-68 17 Aug 19:45:26 19:51:54 37° 255° (WSW) 19:58:22 435.675
O/OREOS (USA 219) 17 Aug 19:49:48 19:52:43 17° 75° (ENE) 19:55:39 437.305
XW-2A 17 Aug 19:53:30 19:55:55 19° 259° (WSW) 19:58:20 145.665 - 145.685
STRAND 1 17 Aug 19:58:45 20:02:36 22° 283° (WNW) 20:06:29 437.568
JUGNU 17 Aug 19:59:14 20:05:00 60° 201° (SSW) 20:10:49 437.505
SRMSAT 17 Aug 20:02:11 20:07:20 30° 19° (NNE) 20:12:31 437.500
Oscar 11 17 Aug 20:07:11 20:11:21 51° 79° (ENE) 20:15:30 .
RS-15 17 Aug 20:24:50 20:33:09 23° 67° (ENE) 20:41:08 29.354- 29.394
AAUSAT CUBESAT 2 17 Aug 20:28:30 20:31:31 20° 258° (WSW) 20:34:33 437.432
ZACube-1 17 Aug 20:30:00 20:34:04 39° 258° (WSW) 20:38:00 437.345
DELFI C3 17 Aug 20:35:19 20:38:07 19° 79° (ENE) 20:40:55 145.870
ISS 17 Aug 20:37:39 20:40:40 36° 235° (SW) 20:43:42 437.550
EO-88 17 Aug 20:42:58 20:43:28 10° 79° (ENE) 20:43:57 145.990 - 145.960
FO-29 17 Aug 20:49:37 20:54:39 53° 103° (ESE) 20:59:45 435.910
nSIGHT-1 17 Aug 20:51:36 20:54:05 20° 234° (SW) 20:56:34 .
AO-73 17 Aug 20:54:23 20:57:39 21° 258° (WSW) 21:00:51 145.935
PRISM 17 Aug 21:02:11 21:04:42 16° 102° (ESE) 21:07:14 437.425
Max Valier Satellite 17 Aug 21:10:46 21:14:18 46° 79° (E) 21:17:49 145.860
SO-50 17 Aug 21:17:19 21:21:09 26° 112° (ESE) 21:24:56 436.795
UNISAT 6 17 Aug 21:18:43 21:22:57 49° 102° (ESE) 21:27:19 437.425
O/OREOS (USA 219) 17 Aug 21:28:23 21:31:50 21° 255° (WSW) 21:35:19 437.305
JUGNU 17 Aug 21:49:35 21:54:14 24° 197° (SSW) 21:58:55 437.505
SRMSAT 17 Aug 21:50:39 21:56:39 80° 21° (NNE) 22:02:41 437.500
PCSat 17 Aug 21:53:06 21:58:25 58° 289° (WNW) 22:03:42 145.827
TIGRISAT 17 Aug 21:54:53 21:59:10 55° 281° (WNW) 22:03:34 435.000
DELFI C3 17 Aug 22:10:27 22:12:36 14° 258° (WSW) 22:14:46 145.870
ESTCUBE 1 17 Aug 22:10:30 22:12:14 12° 78° (ENE) 22:13:57 437.505/2401.250
EO-88 17 Aug 22:14:10 22:16:51 20° 259° (WSW) 22:19:33 145.990 - 145.960
M-CUBED/EXP-1 PRIME 17 Aug 22:21:37 22:24:29 20° 104° (ESE) 22:27:14 437.505
LO-87 17 Aug 22:22:47 22:26:02 31° 79° (E) 22:29:14 145.935 - 145.965
RS-15 17 Aug 22:34:09 22:45:13 59° 250° (WSW) 22:55:54 29.354- 29.394
PRISM 17 Aug 22:36:56 22:39:42 18° 282° (WNW) 22:42:29 437.425
NANOSAT C BR1 17 Aug 22:42:50 22:44:43 13° 102° (ESE) 22:46:38 145.865
POLYITAN 1 17 Aug 22:43:11 22:45:42 15° 102° (ESE) 22:48:12 437.675
NO-84 17 Aug 22:51:40 22:54:11 19° 124° (SE) 22:56:32 435.350 FM
QB50P2 17 Aug 22:56:55 23:00:32 28° 102° (ESE) 23:04:10 145.880/145.840
SO-50 17 Aug 22:58:45 23:01:21 15° 292° (WNW) 23:03:54 436.795
EO-79 17 Aug 22:59:06 23:02:38 26° 102° (ESE) 23:06:12 145.935-145.965
SPROUT 17 Aug 23:10:45 23:12:57 14° 78° (ENE) 23:15:08 437.525
AIST 2D 17 Aug 23:20:50 23:24:02 32° 281° (W) 23:27:16 435.315
DUCHIFAT 1 17 Aug 23:33:12 23:37:20 64° 101° (ESE) 23:41:31 145.980
SRMSAT 17 Aug 23:40:23 23:45:55 38° 200° (SSW) 23:51:28 437.500
JUGNU 17 Aug 23:41:43 23:44:00 12° 189° (S) 23:46:18 437.505
ESTCUBE 1 17 Aug 23:44:52 23:48:45 29° 258° (WSW) 23:52:38 437.505/2401.250
BUGSAT 1 17 Aug 23:49:49 23:52:43 19° 102° (ESE) 23:55:37 437.445
M-CUBED/EXP-1 PRIME 17 Aug 23:56:49 23:58:37 13° 288° (WNW) 00:00:23 437.505
VELOX 1 18 Aug 00:07:38 00:12:05 73° 78° (ENE) 00:16:30 145.980
NANOSAT C BR1 18 Aug 00:16:47 00:20:09 24° 282° (WNW) 00:23:34 145.865
POLYITAN 1 18 Aug 00:18:04 00:21:11 20° 282° (WNW) 00:24:20 437.675
DX 1 18 Aug 00:22:34 00:25:59 22° 78° (ENE) 00:29:22 434.975-435.025
NO-84 18 Aug 00:30:48 00:31:19 10° 300° (WNW) 00:31:50 435.350 FM
QB50P2 18 Aug 00:34:58 00:36:03 11° 282° (WNW) 00:37:07 145.880/145.840
EO-79 18 Aug 00:36:43 00:38:08 11° 282° (WNW) 00:39:33 145.935-145.965
SPROUT 18 Aug 00:45:09 00:48:34 23° 258° (WSW) 00:51:59 437.525
Oscar 19 18 Aug 01:04:53 01:10:03 74° 103° (ESE) 01:15:15 437.125/150
50 SAT 18 Aug 01:21:36 01:24:13 21° 258° (WSW) 01:26:52 437.505
BUGSAT 1 18 Aug 01:25:31 01:27:48 15° 282° (WNW) 01:30:06 437.445
SRMSAT 18 Aug 01:31:47 01:35:34 17° 194° (SSW) 01:39:21 437.500
UKube-1 18 Aug 01:43:58 01:48:02 40° 258° (WSW) 01:52:04 .
Gurwin Techsat 1B 18 Aug 01:48:26 01:53:37 59° 283° (WNW) 01:58:51 435.225
DX 1 18 Aug 01:59:19 02:01:53 15° 257° (WSW) 02:04:26 434.975-435.025
ITAMSAT 1 18 Aug 02:18:09 02:21:32 18° 103° (ESE) 02:24:54 435.822/435.867
BEESAT 18 Aug 02:24:31 02:28:54 36° 77° (ENE) 02:33:14 436.000
AO-7 18 Aug 02:32:26 02:40:05 42° 106° (ESE) 02:47:43 .
MOZHAYETS 4 18 Aug 02:40:34 02:44:57 47° 78° (ENE) 02:49:17
ITUPSAT 1 18 Aug 02:55:55 03:00:43 85° 258° (WSW) 03:05:28 437.325
YUBILEINY 18 Aug 03:06:51 03:15:23 62° 87° (E) 03:23:57 435.215
JUGNU 18 Aug 03:20:57 03:24:18 15° 168° (SSE) 03:27:40 437.505
SRMSAT 18 Aug 03:24:55 03:25:46 10° 184° (S) 03:26:37 437.500
BEESAT 3 18 Aug 03:31:51 03:35:28 38° 112° (ESE) 03:39:08 437.485
ITAMSAT 1 18 Aug 03:56:20 04:00:42 28° 283° (WNW) 04:05:05 435.822/435.867
BEESAT 18 Aug 04:05:08 04:06:21 11° 257° (WSW) 04:07:35 436.000
AO-7 18 Aug 04:26:00 04:32:28 26° 287° (WNW) 04:39:00 .
AO-85 18 Aug 04:27:13 04:31:27 53° 291° (WNW) 04:35:25 145.980
CUBESAT XI-V 18 Aug 04:27:42 04:32:06 46° 258° (WSW) 04:36:31 437.345
KKS-1 18 Aug 04:54:13 04:58:36 53° 258° (WSW) 05:02:57 437.445
DOVE 4 18 Aug 04:56:42 05:00:54 63° 101° (E) 05:05:01 437.250
KAITUO 1B 18 Aug 05:03:49 05:04:55 11° 102° (ESE) 05:06:01 145.475/437.950
YUBILEINY 18 Aug 05:07:24 05:11:48 15° 267° (W) 05:16:14 435.215
JUGNU 18 Aug 05:08:34 05:13:54 32° 161° (SSE) 05:19:12 437.505
LilacSat-2 18 Aug 05:10:49 05:13:59 24° 102° (ESE) 05:17:09 437.200
SRMSAT 18 Aug 05:14:18 05:16:10 11° 173° (S) 05:18:01 437.500
BEESAT 2 18 Aug 05:15:04 05:18:21 26° 292° (WNW) 05:21:41 435.950
XW-2D 18 Aug 05:19:14 05:22:39 31° 101° (ESE) 05:26:05 145.860 - 145.880
XW-2B 18 Aug 05:29:55 05:33:34 44° 101° (ESE) 05:37:15 145.730 - 145.750
CUTE-I 18 Aug 05:39:23 05:44:29 49° 103° (ESE) 05:49:36 437.470
NUDT-PHONESAT 18 Aug 05:39:24 05:42:57 41° 101° (ESE) 05:46:31 437.300
STARS 18 Aug 05:43:05 05:47:05 34° 258° (WSW) 05:51:05 437.465
XW-2C 18 Aug 05:48:35 05:52:26 85° 281° (W) 05:56:17 145.795 - 145.815
HO-68 18 Aug 05:51:05 05:56:00 20° 105° (ESE) 06:00:54 435.675
XW-2F 18 Aug 06:03:48 06:07:30 50° 282° (WNW) 06:11:14 145.980 - 146.000
CUBEBUG 2 18 Aug 06:19:02 06:19:38 10° 103° (ESE) 06:20:13 437.445
Tancredo 1 18 Aug 06:25:46 06:27:51 18° 126° (SE) 06:29:57 437.200
KAITUO 1B 18 Aug 06:35:43 06:38:38 21° 281° (W) 06:41:33 145.475/437.950
CUTE 1.7 + AOD 2 18 Aug 06:40:30 06:44:41 53° 101° (ESE) 06:48:51 437.475
LilacSat-2 18 Aug 06:47:38 06:47:59 10° 281° (WNW) 06:48:20 437.200
STRAND 1 18 Aug 06:51:20 06:56:22 56° 78° (ENE) 07:01:22 437.568
AAUSAT CUBESAT 2 18 Aug 06:57:00 06:59:40 17° 101° (ESE) 07:02:20 437.432
JUGNU 18 Aug 06:57:01 07:03:03 86° 158° (SSE) 07:09:02 437.505
SRMSAT 18 Aug 07:01:46 07:06:12 21° 164° (SSE) 07:10:35 437.500
ZACube-1 18 Aug 07:05:56 07:07:24 11° 103° (ESE) 07:08:53 437.345
